Regional Weather Roundup
Issued by NWS

Home | Current Version | Previous Version | Graphics & Text | Print | Product List | Glossary On
Versions: 1 2 3 4 5 6 7 8 9 10 11 12 13 14 15 16 17 18 19 20 21 22 23 24 25 26 27 28 29 30 31 32 33 34 35 36 37 38 39 40 41 42 43 44 45 46 47 48 49 50
739
ASUS43 KLOT 270209
RWRIL

ILLINOIS REGIONAL WEATHER ROUNDUP
NATIONAL WEATHER SERVICE CHICAGO/ROMEOVILLE IL
900 PM CDT WED JUL 26 2017

NOTE: "FAIR" INDICATES FEW OR NO CLOUDS BELOW 12,000 FEET WITH NO
SIGNIFICANT WEATHER AND/OR OBSTRUCTIONS TO VISIBILITY.

* THESE STATIONS ARE NOT UNDER NWS QUALITY CONTROL. THEY ALSO MAY NOT
  REPORT WEATHER SUCH AS PRECIPITATION OR FOG.

ILZ001-002-007-009-015-016-024-270300-
NORTHWEST ILLINOIS

CITY           SKY/WX    TMP DP  RH WIND       PRES   REMARKS
MOLINE         CLOUDY    73  70  90 SW3       29.95F
STERLING*      CLOUDY    72  71  97 CALM      29.97F FOG
SAVANNA*       RAIN      72  71  98 CALM      29.94F
$$

ILZ003-004-008-010-011-017-018-270300-
NORTH CENTRAL ILLINOIS

CITY           SKY/WX    TMP DP  RH WIND       PRES   REMARKS
ROCKFORD       CLOUDY    79  74  84 SE9       29.96F HX  82
FREEPORT*      CLOUDY    71  69  95 SW10      29.97F
ROCHELLE*      LGT RAIN  76  74  96 CALM      29.97F
DE KALB*       CLOUDY    76  73  91 SE7       29.98S
PERU*          RAIN      75  71  86 SW17G29   29.98R
$$

ILZ005-006-012>014-019>023-270300-
NORTHEAST ILLINOIS

CITY           SKY/WX    TMP DP  RH WIND       PRES   REMARKS
CHICAGO-OHARE  CLOUDY    79  70  74 S8        29.97S HX  82
CHICAGO-MIDWAY CLOUDY    81  71  71 SE8       29.97F HX  85
AURORA         CLOUDY    77  74  90 SE6       29.97S
LANSING*       CLOUDY    77  70  77 SE5       29.99S
JOLIET*        CLOUDY    79  74  85 SE5       29.97S HX  83
WAUKEGAN       PTCLDY    74  72  93 E3        29.96S
DUPAGE AIRPORT MOCLDY    77  73  87 S6        29.97S
KANKAKEE*      CLOUDY    75  73  94 SE5       29.99R
WHEELING       CLOUDY    80  72  76 S7        29.99R HX  84
MORRIS*        CLOUDY    77  73  90 E5        29.95F
ROMEOVILLE*    CLOUDY    76  70  81 SE6       29.98S
NORTHERLY ISL    N/A     79  68  69 S5          N/A  HX  81
$$

LMZ740>746-270300-
SOUTHERN LAKE MICHIGAN

STATION/POSITION SKY/WX   TEMP    WIND        PRES    VSBY  WAVE
                          AIR SEA DIR/SP/G                  HT/PER
                          (F)     (DEG/KT/KT) (MB)    (MI)  (FT/S)
SOUTHERN BUOY              73 71  120/  8/  8 1015.0          1
WILMETTE HARBOR            74 72  160/  8/  8   N/A           1/ 2
HARRISON CRIB              79     180/ 10/ 11   N/A
BURNHAM HARBOR             79                   N/A
CALUMET HARBOR             80     140/  4/  7 1015.0R
BURNS HARBOR               79     170/  5/  9 1015.9R
MICHIGAN CITY              78     160/  6/  7   N/A
MICHIGAN CITY 6N           76 75  170/  4/  6   N/A           0
ST. JOSEPH                 76 75  190/  4/  6 1015.0          0
$$

ILZ025>027-034>036-040-047-049-050-058-095>099-270300-
WEST-CENTRAL ILLINOIS

CITY           SKY/WX    TMP DP  RH WIND       PRES   REMARKS
QUINCY         CLOUDY    76  75  97 CALM      29.97R
GALESBURG*     CLOUDY    72  71  99 CALM      29.98R
MACOMB*        CLOUDY    73  71  92 SW3       29.98F
JACKSONVILLE*  CLOUDY    81  77  89 CALM      29.95S HX  89
PITTSFIELD*    LGT RAIN  80  75  85 NW3       29.98R HX  84
$$

ILZ028>032-037-038-041>044-048-051>054-059>061-270300-
CENTRAL ILLINOIS

CITY           SKY/WX    TMP DP  RH WIND       PRES   REMARKS
PONTIAC        LGT RAIN  77  76  98 SE3       29.97S
BLOOMINGTON    LGT RAIN  79  76  90 SW5       30.00R HX  83
DECATUR        LGT RAIN  83  77  82 S3        29.98R HX  92
PEORIA         RAIN      72  72 100 CALM      30.00S FOG
LACON*         RAIN      72  72 100 SW3       29.99R
LINCOLN*       RAIN      81  81  99 CALM      29.97R HX  92
SPRINGFIELD    RAIN      82  81  96 S6        29.95F FOG     HX  95
TAYLORVILLE    LGT RAIN  80  78  92 S3        29.97S HX  88
$$

ILZ033-039-045-046-055>057-062-063-270300-
EAST-CENTRAL ILLINOIS

CITY           SKY/WX    TMP DP  RH WIND       PRES   REMARKS
CHAMPAIGN      LGT RAIN  80  76  87 SE5       29.98R HX  86
RANTOUL*       CLOUDY    81  78  92 SE3       29.98R HX  89
MATTOON        MOCLDY    82  79  90 S8        29.97R HX  92
PARIS*         MOCLDY    78  77  97 SE3       29.99S HX  80
$$

ILZ079-100>102-270300-
SOUTHWEST ILLINOIS

CITY           SKY/WX    TMP DP  RH WIND       PRES   REMARKS
ALTON          CLOUDY    79  72  78 S6        29.98R HX  82
BELLEVILLE     CLOUDY    77  74  90 SW5       29.98S
CAHOKIA*       CLOUDY    82  72  71 E3        29.97R HX  87
SPARTA*        CLOUDY    77  74  92 S5        30.00S
$$

ILZ064>066-069>071-074>076-080>082-084>086-088>090-092>094-270300-
SOUTH-CENTRAL ILLINOIS

CITY           SKY/WX    TMP DP  RH WIND       PRES   REMARKS
CARBONDALE     CLOUDY    82  78  88 S5        29.99S HX  91
CAIRO*         CLOUDY    83  76  79 S3        30.00S HX  92
EFFINGHAM*     CLOUDY    80  75  84 SE5       30.00S HX  86
MARION         CLOUDY    82  82 100 S3        30.01R HX  97
MT. VERNON     CLOUDY    80  76  87 SE5       29.99S HX  86
CENTRALIA*     CLOUDY    78  73  85 S5        29.98F HX  81
SALEM*         CLOUDY    81  72  74 SW3       29.99F HX  85
METROPOLIS*    CLOUDY    85  76  73 SW5       30.02R HX  94
$$

ILZ067-068-072-073-078-083-087-091-270300-
SOUTHEAST ILLINOIS

CITY           SKY/WX    TMP DP  RH WIND       PRES   REMARKS
LAWRENCEVILLE  PTCLDY    77  74  90 SW6       30.00R
FLORA*         CLOUDY    79  76  91 S3        30.00R HX  83
FAIRFIELD*     MOCLDY    77  77 100 CALM      29.99R
HARRISBURG*    CLOUDY    79  76  92 CALM      30.00S HX  82
ROBINSON*      MOCLDY    74  72  95 S3        30.01R
CARMI*         CLOUDY    75  75  99 CALM      30.00R
$$

ABBREVIATIONS USED IN REMARKS
   TC - TEMPERATURE IN CELSIUS
  WCI - WIND CHILL INDEX
   HX - HEAT INDEX
  VSB - VISIBILITY
$$





USA.gov is the U.S. government's official web portal to all federal, state and local government web resources and services.